Showing default

KANOPUS-V 4, 43181

Orbit data source: Space-Track

KANOPUS-V 4, 43181 is a payload satellite owned by VNIIEM (CIS) in SSO that was launched on Thu, 01 Feb 2018 UTC via a SOYUZ-2-1A launch vehicle from the Vostochny Cosmodrome (VOSTO). Payload-class satellites include a variety of spacecraft equipped with specific instruments for various scientific and technological missions. These include communications satellites like Starlink; space stations such as the ISS; scientific satellites like the Hubble; Earth observation satellites from companies like Planet Labs, Umbra, and HawkEye 360; GPS; miniature CubeSats for education and research; and military/defense satellites.

Loading next visibility...
Identifier
43181, 2018-014B
Orbit
SSO
Country
Flag of CISCIS
Related business
Manufacturer
VNIIEM
Mission
Operational Civil Imaging
Bus & Motor
KANOPUS, Unknown motor
Mass
490 kg wet, 490 kg dry
Launch date (UTC)
2018-02-01 (8 years ago)
Launch vehicle
SOYUZ-2-1A
Launch site
Vostochny Cosmodrome (VOSTO)
Object type
Payload
Rocket body
Debris
Shape & HBR
Box + 2 Pan, 3.0 m
Radar Cross Section
1.665 m², Large (>1 m²)

Expand to show TLE details & history
Last TLE update: 6 hours ago

TLE from 6 hours ago
0 KANOPUS-V 4
1 43181U 18014B   26112.52154013  .00000052  00000-0  51749-5 0  9992
2 43181  97.3623  19.3214 0001955  94.7877 265.3583 15.22692825456268
Epoch: 2026-04-22T12:31Z
TLE epoch observation values (Epoch: 2026-04-22T12:31:01.067Z)
Latitude
-0.00001°
Longitude
-19.01482°
Altitude
500.926 km
Speed
7.614 km/s
True Right ascension
01h 17m 17s
True Declination
0° 00' 00"
Sunlit
Object was in daylight at epoch
Visualization orbit readout
Latitude
Unknown
Longitude
Unknown
Altitude
Unknown
Speed
Unknown
Apparent Right ascension
Unknown
Apparent Declination
Unknown
Sunlit
N/A
Visualization observer readout
Local Sidereal Time
01:13:32
Azimuth
Unknown
Elevation
Unknown
Doppler factor
Unknown
Orbital elements
Apogee altitude
496.026 km
Perigee altitude
493.339 km
Semi-major axis
6,872.82 km
Eccentricity
0.0002
Inclination
97.3623°
RAAN
19.3214°
Arg. of periapsis
94.7877°
True anomaly
265.33597°
Mean anomaly
265.3583°
Eccentric anomaly
265.34714°
Mean motion
3.80926 °/min
Orbital period
94.51 mins
BSTAR
0.0000051749
Loading maneuver chart data...
Computing Atmospheric mass density...
Loading historical data...
Loading historical data...
Loading historical data...
Loading historical data...
Loading historical data...
Loading historical data...
Loading historical data...

Documentation

Showing up to 5 results
|